WA0FW-1 Weather Reports


time (UTC)temp
F
wind
direction
speed
knots
gust
knots
rain 1hr
in
rain 24hr
in
rain mn
in
humidity
%
barometer
mb
20220930150505 58 0 0.0 0.0 0.00 0.00 0.00 68 1022.5
20220930145605 57 0 0.0 0.0 0.00 0.00 0.00 68 1022.9
20220930144705 56 68 0.0 0.9 0.00 0.00 0.00 70 1022.9
20220930143805 55 68 0.9 0.9 0.00 0.00 0.00 71 1023.2
20220930142905 54 0 0.0 0.0 0.00 0.00 0.00 73 1022.9
20220930142005 53 0 0.0 0.0 0.00 0.00 0.00 74 1023.2
20220930141105 52 0 0.0 0.0 0.00 0.00 0.00 75 1023.2
20220930140205 50 0 0.0 0.0 0.00 0.00 0.00 78 1023.2
20220930135305 49 0 0.0 0.0 0.00 0.00 0.00 79 1022.9
20220930134405 48 0 0.0 0.0 0.00 0.00 0.00 79 1022.9
20220930133505 48 0 0.0 0.0 0.00 0.00 0.00 80 1023.2
20220930132605 47 0 0.0 0.0 0.00 0.00 0.00 80 1022.9
20220930131705 47 0 0.0 0.0 0.00 0.00 0.00 80 1023.2
20220930130805 47 0 0.0 0.0 0.00 0.00 0.00 80 1023.2
20220930125905 47 0 0.0 0.0 0.00 0.00 0.00 80 1023.2
20220930125005 47 0 0.0 0.0 0.00 0.00 0.00 79 1023.2
20220930124105 47 0 0.0 0.0 0.00 0.00 0.00 79 1022.9
20220930123205 47 0 0.0 0.0 0.00 0.00 0.00 79 1023.2
20220930122305 47 0 0.0 0.0 0.00 0.00 0.00 78 1023.2
20220930121405 48 0 0.0 0.0 0.00 0.00 0.00 78 1022.9
20220930120505 48 0 0.0 0.0 0.00 0.00 0.00 78 1022.9
20220930115605 48 0 0.0 0.0 0.00 0.00 0.00 78 1022.9
20220930114705 48 0 0.0 0.0 0.00 0.00 0.00 78 1022.5
20220930113805 48 0 0.0 0.0 0.00 0.00 0.00 79 1022.9
20220930112905 48 0 0.0 0.0 0.00 0.00 0.00 79 1022.5
20220930112005 48 0 0.0 0.0 0.00 0.00 0.00 78 1022.5
20220930111105 48 0 0.0 0.0 0.00 0.00 0.00 77 1022.5
20220930110205 48 0 0.0 0.0 0.00 0.00 0.00 77 1022.5
20220930105305 48 0 0.0 0.0 0.00 0.00 0.00 77 1022.5
20220930104405 49 0 0.0 0.0 0.00 0.00 0.00 77 1022.9
20220930103505 49 0 0.0 0.0 0.00 0.00 0.00 76 1022.5
20220930102605 49 0 0.0 0.0 0.00 0.00 0.00 76 1022.5
20220930101705 49 0 0.0 0.0 0.00 0.00 0.00 76 1022.5
20220930100805 50 0 0.0 0.0 0.00 0.00 0.00 74 1022.5
20220930095904 51 0 0.0 0.0 0.00 0.00 0.00 74 1022.5
20220930095005 51 0 0.0 0.0 0.00 0.00 0.00 74 1022.2
20220930094104 51 0 0.0 0.0 0.00 0.00 0.00 73 1022.2
20220930093205 51 0 0.0 0.0 0.00 0.00 0.00 73 1022.2
20220930092305 52 0 0.0 0.0 0.00 0.00 0.00 73 1022.2
20220930091405 52 0 0.0 0.0 0.00 0.00 0.00 72 1022.5
20220930090505 53 0 0.0 0.0 0.00 0.00 0.00 71 1022.2
20220930085605 53 0 0.0 0.0 0.00 0.00 0.00 71 1022.2
20220930084704 53 0 0.0 0.0 0.00 0.00 0.00 71 1022.5
20220930083805 53 0 0.0 0.0 0.00 0.00 0.00 70 1022.5
20220930082904 54 0 0.0 0.0 0.00 0.00 0.00 70 1022.5
20220930082004 54 0 0.0 0.0 0.00 0.00 0.00 69 1022.5
20220930081104 54 0 0.0 0.0 0.00 0.00 0.00 69 1022.5
20220930080204 54 0 0.0 0.0 0.00 0.00 0.00 70 1022.5
20220930075305 53 0 0.0 0.0 0.00 0.00 0.00 70 1022.5
20220930074404 53 0 0.0 0.0 0.00 0.00 0.00 70 1022.5
20220930073504 53 0 0.0 0.0 0.00 0.00 0.00 70 1022.9
20220930072604 53 0 0.0 0.0 0.00 0.00 0.00 71 1022.9
20220930071704 53 0 0.0 0.0 0.00 0.00 0.00 70 1022.9
20220930070804 53 0 0.0 0.0 0.00 0.00 0.00 70 1022.9
20220930065904 53 0 0.0 0.0 0.00 0.00 0.00 69 1023.2
20220930065005 55 0 0.0 0.0 0.00 0.00 0.00 65 1023.6
20220930064104 55 0 0.0 0.0 0.00 0.00 0.00 63 1023.2
20220930063204 55 0 0.0 0.0 0.00 0.00 0.00 63 1023.2
20220930062304 55 0 0.0 0.0 0.00 0.00 0.00 63 1022.9
20220930061404 55 0 0.0 0.0 0.00 0.00 0.00 63 1022.9
20220930055309 55 0 0.0 0.0 0.00 0.00 0.00 61 1023.2
20220930054409 55 0 0.0 0.0 0.00 0.00 0.00 61 1023.2
20220930053509 55 0 0.0 0.0 0.00 0.00 0.00 60 1023.2
20220930052609 56 0 0.0 0.0 0.00 0.00 0.00 59 1022.9
20220930051709 56 0 0.0 0.0 0.00 0.00 0.00 58 1023.2
20220930050809 56 203 0.0 2.6 0.00 0.00 0.00 58 1022.5
20220930045909 56 0 0.0 0.0 0.00 0.00 0.00 57 1022.9
20220930045009 57 0 0.0 0.0 0.00 0.00 0.00 57 1022.5
20220930044109 57 0 0.0 0.0 0.00 0.00 0.00 56 1022.5
20220930043209 57 0 0.0 0.0 0.00 0.00 0.00 56 1022.5
20220930042309 57 0 0.0 0.0 0.00 0.00 0.00 56 1022.5
20220930041409 58 1 0.0 1.7 0.00 0.00 0.00 55 1022.5
20220930040509 57 247 0.0 0.0 0.00 0.00 0.00 55 1022.5
20220930035609 58 203 0.0 1.7 0.00 0.00 0.00 55 1022.5
20220930034709 58 0 0.0 0.0 0.00 0.00 0.00 54 1022.5
20220930033809 58 0 0.0 0.0 0.00 0.00 0.00 55 1022.5
20220930032909 58 0 0.0 0.0 0.00 0.00 0.00 55 1022.5
20220930032009 58 0 0.0 0.0 0.00 0.00 0.00 54 1022.5
20220930031109 57 0 0.0 0.0 0.00 0.00 0.00 54 1022.9
20220930030209 57 0 0.0 0.0 0.00 0.00 0.00 54 1022.5
20220930025309 57 0 0.0 0.0 0.00 0.00 0.00 54 1022.5
20220930024409 58 0 0.0 0.0 0.00 0.00 0.00 54 1022.5
20220930023509 58 0 0.0 0.0 0.00 0.00 0.00 54 1022.5
20220930022609 58 0 0.0 0.0 0.00 0.00 0.00 53 1022.5
20220930021708 58 0 0.0 0.0 0.00 0.00 0.00 54 1022.5
20220930020809 57 0 0.0 0.0 0.00 0.00 0.00 54 1022.9
20220930015908 58 0 0.0 0.0 0.00 0.00 0.00 53 1022.9
20220930015009 58 0 0.0 0.0 0.00 0.00 0.00 53 1022.5
20220930014108 58 0 0.0 0.0 0.00 0.00 0.00 54 1022.5
20220930013209 57 0 0.0 0.0 0.00 0.00 0.00 54 1022.5
20220930012308 57 0 0.0 0.0 0.00 0.00 0.00 54 1022.5
20220930011409 57 0 0.0 0.0 0.00 0.00 0.00 54 1022.2
20220930010508 57 0 0.0 0.0 0.00 0.00 0.00 54 1022.5
20220930005609 58 0 0.0 0.0 0.00 0.00 0.00 53 1022.5
20220930004708 59 0 0.0 0.0 0.00 0.00 0.00 51 1022.5
20220930003809 59 0 0.0 0.0 0.00 0.00 0.00 50 1022.5
20220930002908 60 0 0.0 0.0 0.00 0.00 0.00 49 1022.2
20220930002009 60 0 0.0 0.0 0.00 0.00 0.00 48 1022.2
20220930001108 60 0 0.0 0.0 0.00 0.00 0.00 48 1022.2
20220930000210 61 0 0.0 0.0 0.00 0.00 0.00 47 1022.2
20220929235308 62 0 0.0 0.0 0.00 0.00 0.00 46 1022.5
20220929234408 62 0 0.0 0.0 0.00 0.00 0.00 45 1022.5
20220929233508 63 0 0.0 0.0 0.00 0.00 0.00 45 1022.5
20220929232609 64 0 0.0 0.0 0.00 0.00 0.00 45 1022.5
20220929231708 64 0 0.0 0.0 0.00 0.00 0.00 45 1022.5
20220929230808 64 0 0.0 0.0 0.00 0.00 0.00 45 1022.5
20220929225908 66 0 0.0 0.0 0.00 0.00 0.00 42 1022.9
20220929225008 66 0 0.0 0.0 0.00 0.00 0.00 42 1023.2
20220929224108 67 0 0.0 0.0 0.00 0.00 0.00 42 1023.2
20220929223208 67 0 0.0 0.0 0.00 0.00 0.00 42 1023.2
20220929222308 67 0 0.0 0.0 0.00 0.00 0.00 41 1023.6
20220929221408 67 203 0.0 0.9 0.00 0.00 0.00 41 1023.6
20220929220508 67 203 0.9 0.9 0.00 0.00 0.00 41 1023.6
20220929215608 67 0 0.0 0.0 0.00 0.00 0.00 41 1023.6
20220929214708 67 0 0.0 0.0 0.00 0.00 0.00 41 1023.9
20220929213808 68 22 0.0 0.9 0.00 0.00 0.00 42 1023.9
20220929212908 68 23 0.0 0.9 0.00 0.00 0.00 40 1023.9
20220929212008 70 190 0.0 1.7 0.00 0.00 0.00 39 1023.9
20220929211108 72 181 1.7 1.7 0.00 0.00 0.00 36 1024.2
20220929210208 72 0 0.0 0.0 0.00 0.00 0.00 35 1024.2
20220929205308 71 247 0.0 1.7 0.00 0.00 0.00 36 1024.2
20220929204408 71 220 0.0 1.7 0.00 0.00 0.00 36 1024.2
20220929203508 71 0 0.0 0.0 0.00 0.00 0.00 38 1024.2
20220929202608 71 0 0.0 0.0 0.00 0.00 0.00 38 1024.2
20220929201709 72 0 0.0 0.0 0.00 0.00 0.00 38 1024.6
20220929200808 71 0 0.0 0.0 0.00 0.00 0.00 40 1024.6
20220929195908 71 156 0.0 0.0 0.00 0.00 0.00 40 1024.9
20220929195008 68 157 0.0 0.0 0.00 0.00 0.00 42 1024.9
20220929194108 67 338 0.0 8.7 0.00 0.00 0.00 42 1024.9
20220929193208 70 343 8.7 8.7 0.00 0.00 0.00 40 1025.2
20220929192308 71 0 0.0 0.0 0.00 0.00 0.00 40 1025.2
20220929191408 71 225 0.0 0.9 0.00 0.00 0.00 41 1025.2
20220929190508 71 0 0.0 0.0 0.00 0.00 0.00 41 1025.2
20220929185608 71 181 0.0 0.9 0.00 0.00 0.00 42 1025.6
20220929184708 70 203 0.0 2.6 0.00 0.00 0.00 43 1025.9
20220929183808 71 191 2.6 3.5 0.00 0.00 0.00 43 1025.9
20220929182908 69 181 3.5 3.5 0.00 0.00 0.00 44 1025.9
20220929182008 69 0 0.0 0.0 0.00 0.00 0.00 45 1025.9
20220929181108 69 181 0.0 0.9 0.00 0.00 0.00 45 1026.3
20220929180208 68 0 0.0 0.0 0.00 0.00 0.00 46 1026.3
20220929175308 68 270 0.0 0.9 0.00 0.00 0.00 46 1026.6
20220929174408 68 46 0.0 1.7 0.00 0.00 0.00 47 1026.6
20220929173508 67 45 0.0 5.2 0.00 0.00 0.00 49 1026.9
20220929172608 67 45 5.2 5.2 0.00 0.00 0.00 49 1026.9
20220929171708 65 0 0.0 0.0 0.00 0.00 0.00 49 1026.9
20220929170808 66 203 0.0 0.9 0.00 0.00 0.00 50 1026.9
20220929165908 65 1 0.0 1.7 0.00 0.00 0.00 51 1026.9
20220929165008 64 0 0.0 0.0 0.00 0.00 0.00 52 1027.3
20220929164108 63 0 0.0 0.0 0.00 0.00 0.00 54 1027.6
20220929163208 62 90 0.0 0.9 0.00 0.00 0.00 54 1027.6
20220929162308 62 164 0.0 3.5 0.00 0.00 0.00 54 1028.0
20220929161407 62 0 0.0 0.0 0.00 0.00 0.00 56 1028.0
20220929160508 59 225 0.0 2.6 0.00 0.00 0.00 58 1028.3
20220929155607 59 0 0.0 0.0 0.00 0.00 0.00 59 1028.3
20220929154707 58 0 0.0 0.0 0.00 0.00 0.00 60 1028.3
20220929153807 57 0 0.0 0.0 0.00 0.00 0.00 63 1028.6
20220929152908 56 0 0.0 0.0 0.00 0.00 0.00 66 1028.6
20220929152007 54 0 0.0 0.0 0.00 0.00 0.00 65 1028.3